Location: Lafig�re
(44.4503°N, 4.0357°E)
Time: 17:07:48
(UTC+00:00)

Cosmos 372 Rocket - Pass Details

Date: 24 September 2020
Orbit: 739 x 767 km, 74.1° (Epoch: 20 October)

Event Time Altitude Azimuth Distance (km) Brightness Sun altitude
Rises 17:56:22 0° 191° (S) 3,220 7.3 -4.3°
Reaches altitude 10° 17:58:44 10° 189° (S) 2,297 6.6 -4.7°
Maximum altitude 18:03:55 68° 107° (ESE) 825 4.0 -5.6°
Drops below altitude 10° 18:09:06 10° 26° (NNE) 2,300 6.3 -6.6°
Sets 18:11:28 0° 24° (NNE) 3,226 7.0 -7.0°
